When you browse on this site, cookies collect data to enhance your experience and personalize the content and advertising you see.
Visit our Privacy Policy to learn more. By continuing to use the site, you agree to this use of cookies and data.
  • în România
  • Lista ţărilor
  • Pe 7 zile
  • Temperatura apei
  • Hartă satelitară
  • Meteo pe hartă
  • Widget-uri
  • user-avatar
    Intrare

    Meteo pe oră la Luce

    Astăzi, 27 Iunie, Joi

    Timp Temperatura Precipitaţii Vânt Presiune Umiditate
    00:00 +23°C° 0 mm 5 m/s 752 mmHg 87%
    01:00 +22°C° 0 mm 5 m/s 752 mmHg 89%
    02:00 +22°C° 0 mm 5 m/s 752 mmHg 91%
    03:00 +21°C° 0 mm 5 m/s 752 mmHg 93%
    04:00 +21°C° 0 mm 5 m/s 752 mmHg 92%
    05:00 +22°C° 0 mm 6 m/s 752 mmHg 90%
    06:00 +22°C° 0 mm 6 m/s 752 mmHg 89%
    07:00 +23°C° 0 mm 6 m/s 753 mmHg 85%
    08:00 +26°C° 0 mm 6 m/s 753 mmHg 81%
    09:00 +28°C° 0 mm 5 m/s 753 mmHg 77%
    10:00 +29°C° 0 mm 5 m/s 753 mmHg 74%
    11:00 +30°C° 0 mm 5 m/s 753 mmHg 71%
    12:00 +32°C° 0 mm 5 m/s 753 mmHg 69%
    13:00 +33°C° 0 mm 5 m/s 753 mmHg 68%
    14:00 +33°C° 0 mm 6 m/s 753 mmHg 67%
    15:00 +33°C° 0 mm 6 m/s 752 mmHg 67%
    16:00 +32°C° 0 mm 6 m/s 752 mmHg 70%
    17:00 +30°C° 0 mm 6 m/s 752 mmHg 73%
    18:00 +29°C° 0 mm 6 m/s 752 mmHg 76%
    19:00 +27°C° 0 mm 5 m/s 752 mmHg 75%
    20:00 +26°C° 0 mm 5 m/s 752 mmHg 74%
    21:00 +23°C° 0 mm 5 m/s 753 mmHg 74%
    22:00 +22°C° 0 mm 5 m/s 753 mmHg 72%
    23:00 +21°C° 0 mm 5 m/s 752 mmHg 70%

    Mâine, 28 Iunie, Vineri

    Timp Temperatura Precipitaţii Vânt Presiune Umiditate
    00:00 +20°C° 0 mm 4 m/s 752 mmHg 68%
    01:00 +19°C° 0 mm 4 m/s 752 mmHg 68%
    02:00 +19°C° 0 mm 4 m/s 752 mmHg 68%
    03:00 +18°C° 0 mm 4 m/s 752 mmHg 67%
    04:00 +17°C° 0 mm 5 m/s 751 mmHg 70%
    05:00 +17°C° 0 mm 5 m/s 751 mmHg 73%
    06:00 +17°C° 0 mm 5 m/s 751 mmHg 76%
    07:00 +20°C° 0 mm 5 m/s 751 mmHg 73%
    08:00 +22°C° 0 mm 5 m/s 752 mmHg 69%
    09:00 +23°C° 0 mm 5 m/s 752 mmHg 65%
    10:00 +26°C° 0 mm 5 m/s 751 mmHg 62%
    11:00 +27°C° 0 mm 5 m/s 751 mmHg 59%
    12:00 +29°C° 0 mm 5 m/s 751 mmHg 55%
    13:00 +29°C° 0 mm 5 m/s 751 mmHg 56%
    14:00 +30°C° 0 mm 5 m/s 751 mmHg 56%
    15:00 +30°C° 0 mm 5 m/s 750 mmHg 56%
    16:00 +29°C° 0 mm 5 m/s 750 mmHg 62%
    17:00 +28°C° 0 mm 4 m/s 750 mmHg 67%
    18:00 +27°C° 0 mm 4 m/s 750 mmHg 73%
    19:00 +25°C° 0 mm 4 m/s 750 mmHg 74%
    20:00 +23°C° 0 mm 4 m/s 750 mmHg 75%
    21:00 +21°C° 0 mm 4 m/s 750 mmHg 76%
    22:00 +20°C° 0 mm 4 m/s 750 mmHg 78%
    23:00 +19°C° 0 mm 3 m/s 750 mmHg 80%

    Poimâine, 29 Iunie, Sâmbătă

    Timp Temperatura Precipitaţii Vânt Presiune Umiditate
    00:00 +19°C° 0 mm 3 m/s 749 mmHg 83%
    01:00 +18°C° 0 mm 3 m/s 749 mmHg 84%
    02:00 +17°C° 0 mm 3 m/s 749 mmHg 84%
    03:00 +17°C° 0 mm 3 m/s 748 mmHg 85%
    04:00 +17°C° 0 mm 3 m/s 748 mmHg 83%
    05:00 +18°C° 0 mm 3 m/s 748 mmHg 80%
    06:00 +19°C° 0 mm 3 m/s 748 mmHg 77%
    07:00 +20°C° 0 mm 3 m/s 748 mmHg 73%
    08:00 +22°C° 0 mm 3 m/s 748 mmHg 69%
    09:00 +25°C° 0 mm 3 m/s 748 mmHg 65%
    10:00 +27°C° 0 mm 3 m/s 748 mmHg 61%
    11:00 +28°C° 0 mm 3 m/s 748 mmHg 57%
    12:00 +30°C° 0 mm 3 m/s 748 mmHg 53%
    13:00 +31°C° 0 mm 3 m/s 747 mmHg 53%
    14:00 +31°C° 0 mm 3 m/s 747 mmHg 53%
    15:00 +33°C° 0 mm 3 m/s 747 mmHg 53%
    16:00 +31°C° 0 mm 2 m/s 747 mmHg 57%
    17:00 +31°C° 0 mm 2 m/s 747 mmHg 61%
    18:00 +30°C° 0 mm 2 m/s 746 mmHg 64%
    19:00 +28°C° 0 mm 2 m/s 747 mmHg 71%
    20:00 +26°C° 0 mm 2 m/s 747 mmHg 77%
    21:00 +24°C° 0 mm 2 m/s 747 mmHg 83%
    22:00 +23°C° 0 mm 2 m/s 747 mmHg 86%
    23:00 +21°C° 0 mm 3 m/s 747 mmHg 90%

    30 Iunie, Duminică

    Timp Temperatura Precipitaţii Vânt Presiune Umiditate
    00:00 +20°C° 0 mm 3 m/s 747 mmHg 93%
    01:00 +20°C° 0 mm 3 m/s 748 mmHg 93%
    02:00 +20°C° 0 mm 4 m/s 748 mmHg 94%
    03:00 +20°C° 0 mm 4 m/s 748 mmHg 94%
    04:00 +19°C° 0 mm 4 m/s 748 mmHg 93%
    05:00 +19°C° 0 mm 4 m/s 749 mmHg 91%
    06:00 +19°C° 0 mm 4 m/s 749 mmHg 90%
    07:00 +20°C° 0 mm 4 m/s 750 mmHg 83%
    08:00 +21°C° 0 mm 3 m/s 750 mmHg 75%
    09:00 +22°C° 0 mm 3 m/s 751 mmHg 68%
    10:00 +24°C° 0 mm 3 m/s 751 mmHg 63%
    11:00 +25°C° 0 mm 3 m/s 751 mmHg 59%
    12:00 +26°C° 0 mm 3 m/s 751 mmHg 55%
    13:00 +26°C° 0 mm 3 m/s 751 mmHg 54%
    14:00 +27°C° 0 mm 2 m/s 751 mmHg 53%
    15:00 +27°C° 0 mm 2 m/s 751 mmHg 52%
    16:00 +26°C° 0 mm 3 m/s 751 mmHg 57%
    17:00 +25°C° 0 mm 3 m/s 751 mmHg 63%
    18:00 +24°C° 0 mm 3 m/s 751 mmHg 69%
    19:00 +21°C° 0 mm 3 m/s 751 mmHg 73%
    20:00 +20°C° 0 mm 3 m/s 751 mmHg 77%
    21:00 +18°C° 0 mm 3 m/s 751 mmHg 82%
    22:00 +17°C° 0 mm 3 m/s 751 mmHg 84%
    23:00 +16°C° 0 mm 3 m/s 751 mmHg 86%

    1 Iulie, Luni

    Timp Temperatura Precipitaţii Vânt Presiune Umiditate
    00:00 +14°C° 0 mm 3 m/s 752 mmHg 88%
    01:00 +14°C° 0 mm 3 m/s 752 mmHg 86%
    02:00 +13°C° 0 mm 3 m/s 751 mmHg 85%
    03:00 +13°C° 0 mm 3 m/s 751 mmHg 83%
    04:00 +13°C° 0 mm 3 m/s 751 mmHg 81%
    05:00 +14°C° 0 mm 3 m/s 751 mmHg 79%
    06:00 +14°C° 0 mm 4 m/s 752 mmHg 78%
    07:00 +17°C° 0 mm 3 m/s 752 mmHg 73%
    08:00 +18°C° 0 mm 2 m/s 752 mmHg 69%
    09:00 +21°C° 0 mm 1 m/s 752 mmHg 65%
    10:00 +21°C° 0 mm 2 m/s 752 mmHg 62%
    11:00 +23°C° 0 mm 2 m/s 752 mmHg 59%
    12:00 +24°C° 0 mm 3 m/s 752 mmHg 56%
    13:00 +25°C° 0 mm 3 m/s 752 mmHg 57%
    14:00 +25°C° 0 mm 3 m/s 752 mmHg 58%
    15:00 +25°C° 0 mm 3 m/s 752 mmHg 59%
    16:00 +24°C° 0.1 mm 3 m/s 752 mmHg 64%
    17:00 +22°C° 0.1 mm 4 m/s 752 mmHg 69%
    18:00 +22°C° 0.1 mm 5 m/s 752 mmHg 74%
    19:00 +20°C° 0 mm 5 m/s 752 mmHg 77%
    20:00 +17°C° 0 mm 5 m/s 753 mmHg 80%
    21:00 +15°C° 0 mm 5 m/s 753 mmHg 83%
    22:00 +14°C° 0 mm 4 m/s 753 mmHg 86%
    23:00 +13°C° 0 mm 4 m/s 753 mmHg 88%

    2 Iulie, Marţi

    Timp Temperatura Precipitaţii Vânt Presiune Umiditate
    00:00 +12°C° 0 mm 4 m/s 753 mmHg 91%
    01:00 +12°C° 0 mm 3 m/s 753 mmHg 93%
    02:00 +12°C° 0 mm 3 m/s 753 mmHg 94%
    03:00 +12°C° 0 mm 3 m/s 752 mmHg 96%
    04:00 +13°C° 0 mm 4 m/s 753 mmHg 91%
    05:00 +14°C° 0 mm 4 m/s 753 mmHg 86%
    06:00 +15°C° 0 mm 5 m/s 753 mmHg 81%
    07:00 +16°C° 0 mm 5 m/s 753 mmHg 76%
    08:00 +17°C° 0 mm 5 m/s 753 mmHg 70%
    09:00 +20°C° 0 mm 5 m/s 753 mmHg 64%
    10:00 +21°C° 0 mm 5 m/s 753 mmHg 62%
    11:00 +21°C° 0 mm 5 m/s 753 mmHg 59%
    12:00 +22°C° 0 mm 5 m/s 753 mmHg 56%
    13:00 +22°C° 0 mm 4 m/s 752 mmHg 56%
    14:00 +22°C° 0 mm 4 m/s 752 mmHg 55%
    15:00 +23°C° 0 mm 4 m/s 751 mmHg 54%
    16:00 +22°C° 0 mm 4 m/s 751 mmHg 58%
    17:00 +21°C° 0 mm 4 m/s 751 mmHg 62%
    18:00 +21°C° 0 mm 4 m/s 751 mmHg 67%
    19:00 +19°C° 0 mm 4 m/s 751 mmHg 70%
    20:00 +18°C° 0 mm 3 m/s 751 mmHg 74%
    21:00 +16°C° 0 mm 3 m/s 751 mmHg 78%
    22:00 +16°C° 0 mm 3 m/s 751 mmHg 80%
    23:00 +14°C° 0 mm 4 m/s 751 mmHg 83%
    Arată mai mult